Newberry, MI

2:53 PM EDT on August 18, 2017 (GMT -0400)
Luce County

Weather History for KERY - September, 2013

Change the Weather History Date:

Saturday, September 21, 2013

  Actual Average Record
Temperature  
Mean Temperature 47 °F -  
Max Temperature 53 °F 61 °F 80 °F (1914)
Min Temperature 41 °F 43 °F 30 °F (1956)
Degree Days  
Heating Degree Days 18    
Moisture  
Dew Point 44 °F    
Average Humidity 88    
Maximum Humidity 97    
Minimum Humidity 71    
Precipitation  
Precipitation 0.02 in - - ()
Sea Level Pressure  
Sea Level Pressure 29.79 in    
Wind  
Wind Speed 7 mph (NW)    
Max Wind Speed 18 mph    
Max Gust Speed 30 mph    
Visibility 10 miles    
Events Rain    
Averages and records for this station are not official NWS values.
T = Trace of Precipitation, MM = Missing Value Source: NWS Daily Summary

Daily Weather History Graph

Daily Weather History Graph

Search for Another Location

Airport or City:

Trip Planner

Search our weather history database for the weather conditions in past years. The results will help you decide how hot, cold, wet, or windy it might be!

Date:

Astronomy

Sep. 21, 2013 Rise Set
Actual Time 7:27 AM EDT 7:40 PM EDT
Civil Twilight 6:57 AM EDT 8:10 PM EDT
Nautical Twilight 6:22 AM EDT 8:46 PM EDT
Astronomical Twilight 5:45 AM EDT 9:22 PM EDT
Moon 8:39 PM EDT (9/21) 9:55 AM EDT (9/21)
Length of Visible Light 13h 13m
Length of Day
12h 13m
Waning Gibbous, 94% of the Moon is Illuminated
Sep 21
Waning Gibbous
Sep 26
Last Quarter
Oct 4
New
Oct 11
First Quarter
Oct 18
Full

Hourly Weather History & Observations

Time (EDT) Temp. Windchill Dew Point Humidity Pressure Visibility Wind Dir Wind Speed Gust Speed Precip Events Conditions
12:16 AM 53.6 °F - 50.9 °F 91% 29.72 in 10.0 mi NW 8.1 mph - N/A   Overcast
12:35 AM 52.7 °F - 50.2 °F 91% 29.72 in 10.0 mi NW 4.6 mph - N/A   Overcast
12:56 AM 51.6 °F - 49.6 °F 93% 29.73 in 10.0 mi NW 5.8 mph - N/A   Mostly Cloudy
1:15 AM 51.4 °F - 49.1 °F 92% 29.73 in 10.0 mi NW 5.8 mph - N/A   Scattered Clouds
1:36 AM 50.9 °F - 48.7 °F 92% 29.72 in 10.0 mi NW 4.6 mph - N/A   Scattered Clouds
1:56 AM 50.9 °F - 48.6 °F 92% 29.73 in 10.0 mi WNW 6.9 mph - N/A   Mostly Cloudy
2:15 AM 50.5 °F - 48.6 °F 93% 29.73 in 10.0 mi NW 4.6 mph - N/A   Overcast
2:36 AM 50.9 °F - 49.1 °F 94% 29.73 in 10.0 mi NW 3.5 mph - N/A   Overcast
2:55 AM 50.9 °F - 48.7 °F 92% 29.73 in 10.0 mi Calm Calm - N/A   Overcast
3:16 AM 50.9 °F - 48.7 °F 92% 29.73 in 10.0 mi NW 3.5 mph - N/A   Overcast
3:36 AM 50.5 °F - 48.7 °F 94% 29.73 in 10.0 mi NW 3.5 mph - N/A   Overcast
3:55 AM 50.4 °F - 48.4 °F 93% 29.72 in 10.0 mi NNW 5.8 mph - N/A   Overcast
4:16 AM 50.2 °F - 48.4 °F 94% 29.73 in 10.0 mi NW 4.6 mph - N/A   Overcast
4:36 AM 50.2 °F - 48.2 °F 93% 29.73 in 10.0 mi NW 4.6 mph - N/A   Overcast
4:55 AM 49.1 °F - 47.3 °F 93% 29.73 in 10.0 mi WNW 3.5 mph - N/A   Scattered Clouds
5:16 AM 47.8 °F - 46.6 °F 95% 29.73 in 10.0 mi WNW 3.5 mph - N/A   Scattered Clouds
5:36 AM 46.8 °F - 46.0 °F 97% 29.73 in 10.0 mi WNW 4.6 mph - N/A   Mostly Cloudy
5:55 AM 48.6 °F - 47.1 °F 95% 29.74 in 10.0 mi WNW 3.5 mph - N/A   Overcast
6:16 AM 48.2 °F - 46.6 °F 94% 29.74 in 10.0 mi West 4.6 mph - N/A   Mostly Cloudy
6:36 AM 48.0 °F - 46.4 °F 94% 29.74 in 10.0 mi West 4.6 mph - N/A   Overcast
6:55 AM 47.7 °F - 46.6 °F 96% 29.74 in 10.0 mi West 4.6 mph - N/A   Overcast
7:16 AM 47.8 °F - 46.8 °F 96% 29.74 in 10.0 mi West 5.8 mph - N/A   Overcast
7:35 AM 48.2 °F - 46.0 °F 92% 29.75 in 10.0 mi West 6.9 mph - N/A   Overcast
7:56 AM 48.2 °F - 45.7 °F 91% 29.75 in 10.0 mi WNW 8.1 mph - N/A   Overcast
8:16 AM 47.3 °F - 45.5 °F 93% 29.75 in 7.0 mi WNW 5.8 mph - N/A   Overcast
8:35 AM 47.7 °F - 46.0 °F 94% 29.75 in 10.0 mi WNW 6.9 mph - N/A   Overcast
8:56 AM 48.4 °F - 46.4 °F 93% 29.75 in 10.0 mi West 8.1 mph - N/A   Mostly Cloudy
9:16 AM 49.8 °F - 47.1 °F 90% 29.76 in 10.0 mi West 8.1 mph - N/A   Mostly Cloudy
9:35 AM 50.0 °F - 46.4 °F 87% 29.76 in 10.0 mi NW 6.9 mph - N/A   Overcast
9:56 AM 50.0 °F - 44.8 °F 82% 29.77 in 10.0 mi WNW 8.1 mph 16.1 mph N/A   Overcast
10:16 AM 50.5 °F - 44.1 °F 78% 29.77 in 10.0 mi NW 9.2 mph - N/A   Overcast
10:35 AM 50.0 °F - 43.0 °F 77% 29.77 in 10.0 mi NW 12.7 mph 20.7 mph N/A   Overcast
10:56 AM 51.1 °F - 42.8 °F 73% 29.77 in 10.0 mi NW 10.4 mph 18.4 mph N/A   Overcast
11:15 AM 47.8 °F - 43.3 °F 84% 29.78 in 10.0 mi NNW 11.5 mph 19.6 mph N/A   Overcast
11:36 AM 49.8 °F - 41.9 °F 74% 29.78 in 10.0 mi NW 10.4 mph 19.6 mph N/A   Mostly Cloudy
11:56 AM 50.2 °F - 41.0 °F 71% 29.78 in 10.0 mi NW 12.7 mph 19.6 mph N/A   Mostly Cloudy
12:15 PM 49.8 °F - 43.2 °F 78% 29.78 in 10.0 mi WNW 9.2 mph - N/A   Mostly Cloudy
12:36 PM 47.8 °F - 43.5 °F 85% 29.79 in 10.0 mi NW 13.8 mph 19.6 mph N/A   Overcast
12:55 PM 51.1 °F - 43.5 °F 75% 29.79 in 10.0 mi WNW 18.4 mph 25.3 mph N/A   Overcast
1:16 PM 50.7 °F - 41.9 °F 72% 29.80 in 7.0 mi NW 16.1 mph 29.9 mph N/A   Overcast
1:36 PM 48.6 °F - 45.1 °F 88% 29.80 in 10.0 mi NNW 11.5 mph 19.6 mph N/A   Overcast
1:55 PM 49.3 °F - 43.7 °F 81% 29.80 in 10.0 mi NW 8.1 mph 18.4 mph N/A   Overcast
2:16 PM 50.0 °F - 43.7 °F 79% 29.80 in 7.0 mi NW 9.2 mph 17.3 mph N/A   Overcast
2:36 PM 48.0 °F - 43.3 °F 84% 29.80 in 5.0 mi NW 12.7 mph 25.3 mph N/A   Haze
2:55 PM 49.1 °F - 43.0 °F 79% 29.80 in 10.0 mi NNW 11.5 mph 16.1 mph N/A   Overcast
3:16 PM 51.1 °F - 43.9 °F 76% 29.81 in 10.0 mi NNW 11.5 mph 20.7 mph N/A   Overcast
3:36 PM 48.6 °F - 42.6 °F 80% 29.82 in 10.0 mi WNW 10.4 mph 17.3 mph N/A   Overcast
3:55 PM 48.6 °F - 43.0 °F 81% 29.82 in 7.0 mi NW 17.3 mph 25.3 mph N/A   Overcast
4:16 PM 48.0 °F - 41.7 °F 79% 29.83 in 10.0 mi NW 10.4 mph 23.0 mph N/A   Overcast
4:35 PM 49.1 °F - 41.7 °F 76% 29.83 in 10.0 mi NW 12.7 mph 19.6 mph N/A   Overcast
4:56 PM 47.3 °F - 42.8 °F 84% 29.83 in 4.0 mi NW 12.7 mph 17.3 mph N/A   Overcast
5:16 PM 46.4 °F 42.4 °F 43.2 °F 88% 29.83 in 10.0 mi NNW 8.1 mph - N/A   Overcast
5:35 PM 45.9 °F 41.7 °F 43.5 °F 92% 29.84 in 5.0 mi NW 8.1 mph - 0.01 in Rain Light Rain
5:56 PM 46.6 °F - 43.5 °F 89% 29.84 in 10.0 mi NNW 8.1 mph - 0.01 in   Overcast
6:15 PM 46.4 °F 41.1 °F 41.9 °F 84% 29.84 in 10.0 mi WNW 11.5 mph 18.4 mph N/A   Overcast
6:36 PM 45.9 °F 40.8 °F 42.1 °F 87% 29.85 in 10.0 mi WNW 10.4 mph - N/A   Overcast
6:56 PM 45.1 °F 40.8 °F 42.4 °F 90% 29.86 in 3.0 mi WNW 8.1 mph 16.1 mph N/A Rain Light Rain
7:15 PM 44.6 °F 40.7 °F 42.3 °F 91% 29.86 in 10.0 mi NW 6.9 mph - N/A   Overcast
7:36 PM 44.1 °F 40.1 °F 42.3 °F 93% 29.86 in 10.0 mi WNW 6.9 mph - N/A   Overcast
7:56 PM 43.9 °F 39.3 °F 41.9 °F 93% 29.86 in 10.0 mi WNW 8.1 mph - N/A   Overcast
8:15 PM 43.7 °F 40.3 °F 41.9 °F 93% 29.87 in 10.0 mi NW 5.8 mph - N/A   Overcast
8:36 PM 43.0 °F 39.5 °F 41.2 °F 93% 29.87 in 10.0 mi WNW 5.8 mph - N/A   Mostly Cloudy
8:56 PM 43.0 °F 36.8 °F 40.1 °F 90% 29.87 in 10.0 mi WNW 11.5 mph 18.4 mph N/A   Mostly Cloudy
9:16 PM 42.8 °F 37.5 °F 39.6 °F 88% 29.88 in 10.0 mi NW 9.2 mph - N/A   Mostly Cloudy
9:36 PM 42.1 °F 37.1 °F 39.4 °F 90% 29.88 in 10.0 mi WNW 8.1 mph - N/A   Scattered Clouds
9:55 PM 41.5 °F 38.6 °F 39.2 °F 91% 29.89 in 10.0 mi WNW 4.6 mph - N/A   Scattered Clouds
10:16 PM 42.4 °F 37.0 °F 39.7 °F 90% 29.89 in 7.0 mi NW 9.2 mph - 0.01 in Rain Light Rain
10:36 PM 41.9 °F 36.3 °F 39.7 °F 92% 29.90 in 10.0 mi NW 9.2 mph - 0.01 in   Mostly Cloudy
10:55 PM 42.3 °F 36.8 °F 40.3 °F 93% 29.90 in 10.0 mi NW 9.2 mph - 0.01 in Rain Light Rain
11:16 PM 42.1 °F 39.2 °F 39.7 °F 91% 29.91 in 10.0 mi NW 4.6 mph - N/A   Mostly Cloudy
11:36 PM 41.2 °F 37.3 °F 39.4 °F 93% 29.91 in 10.0 mi WNW 5.8 mph - N/A   Scattered Clouds
11:55 PM 41.0 °F 38.0 °F 39.2 °F 93% 29.91 in 10.0 mi WNW 4.6 mph - N/A   Scattered Clouds